DLH630 EDDF-OMDB

Flight info

Callsign DLH630
Flight time N/A
Altitude 39000
Route EDDF/07C N0465F370 TOBA1D TOBAK N858 SWALM T201 TAMEB DCT NEVKO DCT OMELO DCT VOZ DCT PISAM DCT TEKNO DCT KEROP DCT NISVA DCT VANET DCT NIKTI DCT LMO DCT RIKSO/N0472F390 DCT YOYYO UG80 BANRO DCT VANZA DCT LAKTO L560 SILKA M872 BDB Y214 RAPMA DCT KUVSO DCT KATIT DCT PEKEM M628 RIGIL G783 ELUDA/N0485F350 G783 ASPED Q308 KIPOK/N0486F340 Q568 IMPED IMPE3C OMDB/30L
Aircraft A343/H-SDE3/L

Departure

Time 2026-04-18 07:11
Airport Frankfurt Main Airport (EDDF)

Arrival

Time N/A
Airport Dubai International Airport (OMDB)
Time Latitude Longitude Altitude Speed Heading
2026-04-18 06:21 50.04754 8.56390 369 ft 0 kts 340°
2026-04-18 06:28 50.04766 8.56383 360 ft 0 kts 340°
2026-04-18 06:29 50.04754 8.56390 360 ft 0 kts 340°
2026-04-18 06:56 50.04751 8.56391 360 ft 3 kts 339°
2026-04-18 06:56 50.04727 8.56406 365 ft 4 kts 335°
2026-04-18 06:56 50.04703 8.56425 366 ft 4 kts 328°
2026-04-18 06:57 50.04681 8.56450 368 ft 4 kts 311°
2026-04-18 06:57 50.04650 8.56505 367 ft 4 kts
2026-04-18 06:57 50.04640 8.56502 365 ft 4 kts 18°
2026-04-18 06:58 50.04660 8.56487 368 ft 4 kts 315°
2026-04-18 06:58 50.04667 8.56451 368 ft 4 kts 274°
2026-04-18 06:58 50.04662 8.56415 367 ft 1 kts 252°
2026-04-18 06:58 50.04658 8.56401 367 ft 2 kts 250°
2026-04-18 06:59 50.04658 8.56399 367 ft 0 kts 250°
2026-04-18 07:01 50.04655 8.56387 367 ft 5 kts 250°
2026-04-18 07:02 50.04628 8.56270 367 ft 17 kts 250°
2026-04-18 07:02 50.04583 8.56083 367 ft 18 kts 249°
2026-04-18 07:02 50.04508 8.55942 366 ft 17 kts 195°
2026-04-18 07:02 50.04401 8.55908 366 ft 15 kts 182°
2026-04-18 07:03 50.04303 8.55952 363 ft 11 kts 159°
2026-04-18 07:03 50.04230 8.55927 364 ft 12 kts 209°
2026-04-18 07:03 50.04151 8.55937 365 ft 12 kts 158°
2026-04-18 07:03 50.04071 8.55960 365 ft 12 kts 199°
2026-04-18 07:04 50.04025 8.55853 358 ft 13 kts 246°
2026-04-18 07:04 50.03995 8.55723 361 ft 13 kts 250°
2026-04-18 07:04 50.03959 8.55576 357 ft 16 kts 250°
2026-04-18 07:04 50.03921 8.55415 362 ft 16 kts 249°
2026-04-18 07:05 50.03883 8.55257 358 ft 16 kts 250°
2026-04-18 07:05 50.03843 8.55088 356 ft 19 kts 250°
2026-04-18 07:05 50.03792 8.54878 360 ft 21 kts 250°
2026-04-18 07:05 50.03740 8.54655 357 ft 23 kts 250°
2026-04-18 07:06 50.03727 8.54600 356 ft 24 kts 250°
2026-04-18 07:06 50.03667 8.54350 353 ft 25 kts 249°
2026-04-18 07:06 50.03607 8.54101 353 ft 24 kts 250°
2026-04-18 07:06 50.03547 8.53854 353 ft 24 kts 249°
2026-04-18 07:07 50.03488 8.53606 352 ft 24 kts 250°
2026-04-18 07:07 50.03440 8.53459 353 ft 11 kts 215°
2026-04-18 07:07 50.03383 8.53471 350 ft 8 kts 141°
2026-04-18 07:07 50.03373 8.53491 353 ft 0 kts 126°
2026-04-18 07:09 50.03372 8.53493 341 ft 2 kts 126°
2026-04-18 07:09 50.03351 8.53537 351 ft 8 kts 126°
2026-04-18 07:09 50.03321 8.53601 354 ft 7 kts 126°
2026-04-18 07:10 50.03313 8.53667 348 ft 6 kts 80°
2026-04-18 07:10 50.03321 8.53704 353 ft 0 kts 71°
2026-04-18 07:10 50.03339 8.53784 352 ft 28 kts 70°
2026-04-18 07:10 50.03473 8.54346 352 ft 81 kts 69°
2026-04-18 07:11 50.03725 8.55401 358 ft 125 kts 70°
2026-04-18 07:11 50.04065 8.56829 366 ft 159 kts 70°
2026-04-18 07:11 50.04455 8.58489 762 ft 162 kts 69°
2026-04-18 07:11 50.04846 8.60134 1289 ft 163 kts 69°
2026-04-18 07:12 50.05239 8.61853 1627 ft 181 kts 70°
2026-04-18 07:12 50.05677 8.63810 1920 ft 202 kts 70°
2026-04-18 07:12 50.06158 8.65958 2352 ft 218 kts 70°
2026-04-18 07:12 50.06669 8.68235 2986 ft 226 kts 71°
2026-04-18 07:13 50.07358 8.70451 3727 ft 231 kts 52°
2026-04-18 07:13 50.08627 8.72055 4296 ft 246 kts 27°
2026-04-18 07:13 50.10244 8.73192 4810 ft 262 kts 22°
2026-04-18 07:13 50.11956 8.74286 5497 ft 269 kts 22°
2026-04-18 07:14 50.13704 8.75424 6255 ft 275 kts 22°
2026-04-18 07:14 50.15478 8.76600 7012 ft 279 kts 22°
2026-04-18 07:14 50.17279 8.77805 7708 ft 284 kts 22°
2026-04-18 07:14 50.19079 8.79019 8332 ft 286 kts 22°
2026-04-18 07:15 50.20914 8.80259 9128 ft 288 kts 22°
2026-04-18 07:15 50.22752 8.81505 9925 ft 290 kts 22°
2026-04-18 07:15 50.24620 8.82774 10517 ft 297 kts 21°
2026-04-18 07:15 50.26585 8.84018 10835 ft 313 kts 16°
2026-04-18 07:16 50.28771 8.84535 11132 ft 325 kts 356°
2026-04-18 07:16 50.31060 8.84182 11444 ft 338 kts 350°
2026-04-18 07:16 50.33443 8.83650 11758 ft 352 kts 349°
2026-04-18 07:16 50.35914 8.83096 12084 ft 365 kts 349°
2026-04-18 07:17 50.38454 8.82544 12569 ft 372 kts 350°
2026-04-18 07:17 50.41041 8.81989 13157 ft 377 kts 350°
2026-04-18 07:17 50.43654 8.81429 13787 ft 381 kts 350°
2026-04-18 07:17 50.46291 8.80865 14368 ft 384 kts 349°
2026-04-18 07:18 50.48953 8.80318 14932 ft 389 kts 352°
2026-04-18 07:18 50.51677 8.80242 15487 ft 395 kts
2026-04-18 07:18 50.54389 8.81111 16036 ft 402 kts 16°
2026-04-18 07:18 50.56956 8.82986 16565 ft 410 kts 30°
2026-04-18 07:19 50.59170 8.85763 17094 ft 417 kts 44°
2026-04-18 07:19 50.60974 8.89361 17658 ft 422 kts 55°
2026-04-18 07:19 50.62529 8.93318 18196 ft 426 kts 58°
2026-04-18 07:19 50.63986 8.97419 18713 ft 430 kts 60°
2026-04-18 07:20 50.65403 9.01610 19181 ft 434 kts 60°
2026-04-18 07:20 50.66816 9.05843 19654 ft 437 kts 60°
2026-04-18 07:20 50.68242 9.10094 20127 ft 440 kts 60°
2026-04-18 07:20 50.69690 9.14373 20588 ft 443 kts 60°
2026-04-18 07:21 50.71064 9.18678 21036 ft 447 kts 65°
2026-04-18 07:21 50.72107 9.23323 21500 ft 451 kts 72°
2026-04-18 07:21 50.72968 9.28108 21956 ft 454 kts 74°
2026-04-18 07:21 50.73747 9.32960 22400 ft 457 kts 75°
2026-04-18 07:22 50.74483 9.37853 22837 ft 460 kts 76°
2026-04-18 07:22 50.75205 9.42786 23313 ft 462 kts 76°
2026-04-18 07:22 50.75681 9.46058 23594 ft 463 kts 76°
2026-04-18 07:22 50.76410 9.51040 23952 ft 466 kts 76°
2026-04-18 07:23 50.77146 9.56059 24277 ft 469 kts 76°
2026-04-18 07:23 50.77888 9.61087 24610 ft 472 kts 76°
2026-04-18 07:23 50.78636 9.66155 24942 ft 474 kts 76°
2026-04-18 07:23 50.79386 9.71247 25261 ft 477 kts 76°
2026-04-18 07:24 50.80145 9.76367 25589 ft 479 kts 76°
2026-04-18 07:24 50.80904 9.81514 25906 ft 482 kts 76°
2026-04-18 07:24 50.81665 9.86694 26212 ft 484 kts 76°
2026-04-18 07:24 50.82422 9.91882 26529 ft 486 kts 76°
2026-04-18 07:25 50.83182 9.97103 26847 ft 488 kts 76°
2026-04-18 07:25 50.83923 10.02288 27121 ft 491 kts 78°
2026-04-18 07:25 50.84372 10.07663 27389 ft 494 kts 86°
2026-04-18 07:25 50.84355 10.13100 27672 ft 496 kts 92°
2026-04-18 07:26 50.84145 10.18556 27952 ft 498 kts 94°
2026-04-18 07:26 50.83856 10.24028 28234 ft 500 kts 95°
2026-04-18 07:26 50.83525 10.29525 28492 ft 502 kts 95°
2026-04-18 07:26 50.83180 10.35035 28753 ft 504 kts 95°
2026-04-18 07:27 50.82835 10.40564 29003 ft 507 kts 95°
2026-04-18 07:27 50.82490 10.46132 29300 ft 508 kts 95°
2026-04-18 07:27 50.82152 10.51687 29643 ft 507 kts 95°
2026-04-18 07:27 50.81814 10.57236 29975 ft 507 kts 95°
2026-04-18 07:28 50.81476 10.62776 30318 ft 507 kts 95°
2026-04-18 07:28 50.81145 10.68322 30609 ft 506 kts 94°
2026-04-18 07:28 50.81095 10.73891 30900 ft 506 kts 85°
2026-04-18 07:28 50.81429 10.79415 31173 ft 505 kts 83°
2026-04-18 07:29 50.81858 10.84935 31439 ft 505 kts 81°
2026-04-18 07:29 50.82332 10.90434 31709 ft 505 kts 81°
2026-04-18 07:29 50.82822 10.95918 32000 ft 504 kts 81°
2026-04-18 07:29 50.83316 11.01415 32277 ft 504 kts 81°
2026-04-18 07:30 50.83804 11.06903 32527 ft 504 kts 81°
2026-04-18 07:30 50.84283 11.12390 32785 ft 503 kts 81°
2026-04-18 07:30 50.84755 11.17868 33039 ft 503 kts 81°
2026-04-18 07:30 50.85214 11.23285 33282 ft 503 kts 81°
2026-04-18 07:31 50.85652 11.28778 33503 ft 503 kts 84°
2026-04-18 07:31 50.85814 11.34307 33762 ft 503 kts 87°
2026-04-18 07:31 50.85882 11.39835 34034 ft 501 kts 88°
2026-04-18 07:31 50.85916 11.45370 34275 ft 501 kts 88°
2026-04-18 07:32 50.85928 11.50883 34485 ft 500 kts 89°
2026-04-18 07:32 50.85931 11.56397 34712 ft 499 kts 89°
2026-04-18 07:32 50.85932 11.61880 34932 ft 498 kts 89°
2026-04-18 07:32 50.85933 11.67357 35147 ft 497 kts 89°
2026-04-18 07:33 50.85934 11.72825 35338 ft 496 kts 89°
2026-04-18 07:33 50.85933 11.78230 35553 ft 496 kts 89°
2026-04-18 07:33 50.85933 11.83689 35755 ft 495 kts 88°
2026-04-18 07:33 50.85929 11.89118 36031 ft 492 kts 88°
2026-04-18 07:34 50.85923 11.94521 36245 ft 491 kts 88°
2026-04-18 07:34 50.85914 11.99926 36411 ft 491 kts 88°
2026-04-18 07:34 50.85903 12.05314 36581 ft 490 kts 88°
2026-04-18 07:34 50.85890 12.10722 36756 ft 490 kts 88°
2026-04-18 07:35 50.85874 12.16101 36938 ft 489 kts 89°
2026-04-18 07:35 50.85857 12.21486 37106 ft 489 kts 89°
2026-04-18 07:35 50.85814 12.32269 37209 ft 492 kts 88°
2026-04-18 07:36 50.85762 12.43003 37206 ft 489 kts 88°
2026-04-18 07:36 50.85700 12.53760 37209 ft 488 kts 88°
2026-04-18 07:37 50.85625 12.64502 37205 ft 488 kts 89°
2026-04-18 07:37 50.85541 12.75267 37204 ft 489 kts 89°
2026-04-18 07:38 50.85449 12.86010 37198 ft 488 kts 89°
2026-04-18 07:38 50.85350 12.96677 37204 ft 488 kts 88°
2026-04-18 07:39 50.85238 13.07413 37185 ft 488 kts 89°
2026-04-18 07:39 50.85115 13.18144 37189 ft 488 kts 89°
2026-04-18 07:40 50.84983 13.28893 37190 ft 488 kts 88°
2026-04-18 07:40 50.84842 13.39633 37199 ft 487 kts 88°
2026-04-18 07:41 50.84692 13.50340 37210 ft 487 kts 89°
2026-04-18 07:41 50.84531 13.61001 37201 ft 487 kts 89°
2026-04-18 07:42 50.84362 13.71715 37199 ft 487 kts 89°
2026-04-18 07:42 50.84137 13.82421 37198 ft 488 kts 93°
2026-04-18 07:43 50.82512 13.92849 37207 ft 492 kts 112°
2026-04-18 07:43 50.80877 13.97585 37210 ft 492 kts 124°
2026-04-18 07:43 50.78711 14.01774 37207 ft 492 kts 135°
2026-04-18 07:44 50.76101 14.05249 37224 ft 491 kts 146°
2026-04-18 07:44 50.73136 14.07900 37213 ft 489 kts 158°
2026-04-18 07:44 50.66874 14.12099 37221 ft 489 kts 158°
2026-04-18 07:45 50.60621 14.16202 37211 ft 491 kts 158°
2026-04-18 07:45 50.54309 14.20391 37234 ft 492 kts 158°
2026-04-18 07:46 50.48019 14.24637 37218 ft 492 kts 157°
2026-04-18 07:46 50.41736 14.28898 37227 ft 492 kts 157°
2026-04-18 07:47 50.35443 14.33156 37221 ft 492 kts 157°
2026-04-18 07:47 50.29160 14.37391 37233 ft 492 kts 158°
2026-04-18 07:48 50.22899 14.41594 37246 ft 493 kts 157°
2026-04-18 07:48 50.16584 14.45823 37247 ft 495 kts 157°
2026-04-18 07:49 50.10237 14.50057 37227 ft 495 kts 157°
2026-04-18 07:49 50.03902 14.54275 37230 ft 495 kts 157°
2026-04-18 07:50 49.97557 14.58487 37244 ft 495 kts 157°
2026-04-18 07:50 49.91258 14.62652 37225 ft 495 kts 157°
2026-04-18 07:51 49.84921 14.66836 37216 ft 495 kts 157°
2026-04-18 07:51 49.78538 14.71033 37225 ft 498 kts 157°
2026-04-18 07:52 49.72150 14.75224 37219 ft 499 kts 157°
2026-04-18 07:52 49.65796 14.79385 37211 ft 499 kts 156°
2026-04-18 07:53 49.59417 14.83550 37227 ft 498 kts 157°
2026-04-18 07:53 49.53020 14.87711 37232 ft 498 kts 157°
2026-04-18 07:54 49.46794 14.92369 37222 ft 498 kts 150°
2026-04-18 07:54 49.40698 14.97543 37235 ft 500 kts 150°
2026-04-18 07:55 49.34583 15.02652 37235 ft 501 kts 150°
2026-04-18 07:55 49.28418 15.07661 37218 ft 501 kts 151°
2026-04-18 07:56 49.22290 15.12575 37217 ft 500 kts 151°
2026-04-18 07:56 49.16120 15.17505 37225 ft 500 kts 151°
2026-04-18 07:57 49.09940 15.22436 37231 ft 501 kts 150°
2026-04-18 07:57 49.03738 15.27373 37227 ft 502 kts 151°
2026-04-18 07:58 48.94443 15.34745 37229 ft 502 kts 150°
2026-04-18 07:59 48.88589 15.40437 37236 ft 497 kts 135°
2026-04-18 07:59 48.83729 15.47870 37235 ft 496 kts 130°
2026-04-18 08:00 48.79098 15.55547 37232 ft 497 kts 128°
2026-04-18 08:00 48.74440 15.63299 37238 ft 497 kts 128°
2026-04-18 08:01 48.69755 15.71015 37236 ft 497 kts 129°
2026-04-18 08:01 48.65049 15.78709 37227 ft 497 kts 129°
2026-04-18 08:02 48.60332 15.86388 37235 ft 497 kts 128°
2026-04-18 08:02 48.55616 15.94045 37241 ft 498 kts 128°
2026-04-18 08:03 48.50925 16.01643 37234 ft 498 kts 129°
2026-04-18 08:03 48.46189 16.09289 37237 ft 498 kts 128°
2026-04-18 08:04 48.41448 16.16919 37244 ft 499 kts 128°
2026-04-18 08:04 48.36700 16.24538 37230 ft 500 kts 128°
2026-04-18 08:05 48.31964 16.32113 37234 ft 499 kts 128°
2026-04-18 08:05 48.27203 16.39715 37236 ft 499 kts 128°
2026-04-18 08:06 48.22436 16.47301 37237 ft 499 kts 128°
2026-04-18 08:06 48.17660 16.54882 37238 ft 500 kts 128°
2026-04-18 08:07 48.12866 16.62469 37238 ft 501 kts 128°
2026-04-18 08:07 48.08097 16.69990 37238 ft 501 kts 128°
2026-04-18 08:08 48.03295 16.77539 37234 ft 501 kts 128°
2026-04-18 08:08 47.98489 16.85077 37229 ft 501 kts 128°
2026-04-18 08:09 47.93678 16.92600 37213 ft 501 kts 128°
2026-04-18 08:09 47.88865 17.00108 37215 ft 501 kts 128°
2026-04-18 08:10 47.84040 17.07610 37213 ft 501 kts 128°
2026-04-18 08:10 47.79211 17.15093 37209 ft 501 kts 128°
2026-04-18 08:11 47.74397 17.22530 37212 ft 502 kts 128°
2026-04-18 08:11 47.69555 17.29993 37207 ft 502 kts 128°
2026-04-18 08:12 47.65513 17.36214 37204 ft 502 kts 128°
2026-04-18 08:12 47.60659 17.43692 37225 ft 501 kts 127°
2026-04-18 08:13 47.56012 17.51355 37206 ft 500 kts 125°
2026-04-18 08:13 47.51414 17.59089 37207 ft 501 kts 125°
2026-04-18 08:14 47.46808 17.66740 37205 ft 501 kts 126°
2026-04-18 08:14 47.42144 17.74408 37244 ft 501 kts 126°
2026-04-18 08:15 47.37474 17.82043 37187 ft 502 kts 126°
2026-04-18 08:15 47.32793 17.89676 37185 ft 502 kts 126°
2026-04-18 08:16 47.28112 17.97294 37206 ft 502 kts 126°
2026-04-18 08:16 47.23418 18.04910 37203 ft 502 kts 126°
2026-04-18 08:17 47.18720 18.12511 37182 ft 502 kts 126°
2026-04-18 08:17 47.14002 18.20111 37187 ft 503 kts 127°
2026-04-18 08:18 47.09322 18.27639 37187 ft 502 kts 127°
2026-04-18 08:18 47.04598 18.35224 37187 ft 503 kts 127°
2026-04-18 08:19 46.99875 18.42785 37189 ft 502 kts 127°
2026-04-18 08:19 46.95147 18.50325 37185 ft 502 kts 127°
2026-04-18 08:20 46.90409 18.57853 37183 ft 502 kts 127°
2026-04-18 08:20 46.85700 18.65322 37186 ft 502 kts 127°
2026-04-18 08:21 46.80953 18.72830 37187 ft 502 kts 127°
2026-04-18 08:21 46.76213 18.80305 37186 ft 501 kts 128°
2026-04-18 08:22 46.71472 18.87765 37185 ft 501 kts 128°
2026-04-18 08:22 46.66725 18.95217 37175 ft 501 kts 128°
2026-04-18 08:23 46.61970 19.02651 37170 ft 501 kts 128°
2026-04-18 08:23 46.57224 19.10049 37180 ft 500 kts 128°
2026-04-18 08:24 46.52498 19.17400 37172 ft 501 kts 128°
2026-04-18 08:24 46.47737 19.24791 37175 ft 501 kts 128°
2026-04-18 08:25 46.42983 19.32146 37172 ft 500 kts 129°
2026-04-18 08:25 46.38225 19.39488 37167 ft 499 kts 129°
2026-04-18 08:26 46.33469 19.46808 37167 ft 499 kts 129°
2026-04-18 08:26 46.28702 19.54124 37168 ft 499 kts 129°
2026-04-18 08:27 46.23961 19.61373 37164 ft 498 kts 129°
2026-04-18 08:27 46.19149 19.68588 37158 ft 499 kts 134°
2026-04-18 08:28 46.13655 19.74778 37161 ft 502 kts 141°
2026-04-18 08:28 46.07970 19.80663 37160 ft 502 kts 141°
2026-04-18 08:29 46.02269 19.86480 37158 ft 503 kts 142°
2026-04-18 08:29 45.96563 19.92305 37154 ft 503 kts 141°
2026-04-18 08:30 45.90864 19.98126 37151 ft 503 kts 141°
2026-04-18 08:30 45.85149 20.03958 37153 ft 503 kts 141°
2026-04-18 08:31 45.79480 20.09730 37141 ft 502 kts 142°
2026-04-18 08:31 45.73781 20.15518 37149 ft 502 kts 142°
2026-04-18 08:32 45.68077 20.21294 37143 ft 502 kts 142°
2026-04-18 08:32 45.62362 20.27066 37135 ft 502 kts 142°
2026-04-18 08:33 45.56649 20.32825 37144 ft 502 kts 142°
2026-04-18 08:33 45.50948 20.38551 37131 ft 501 kts 142°
2026-04-18 08:34 45.45263 20.44248 37135 ft 502 kts 142°
2026-04-18 08:34 45.39546 20.49969 37127 ft 502 kts 142°
2026-04-18 08:35 45.33822 20.55676 37140 ft 503 kts 142°
2026-04-18 08:35 45.28093 20.61373 37120 ft 502 kts 143°
2026-04-18 08:36 45.22366 20.67057 37120 ft 503 kts 142°
2026-04-18 08:36 45.16621 20.72742 37119 ft 503 kts 142°
2026-04-18 08:37 45.10874 20.78423 37126 ft 503 kts 143°
2026-04-18 08:37 45.05133 20.84078 37107 ft 502 kts 143°
2026-04-18 08:38 44.99392 20.89718 37108 ft 503 kts 143°
2026-04-18 08:38 44.93648 20.95347 37103 ft 503 kts 143°
2026-04-18 08:39 44.87940 21.00928 37105 ft 503 kts 143°
2026-04-18 08:39 44.82191 21.06534 37099 ft 501 kts 143°
2026-04-18 08:40 44.76449 21.12117 37090 ft 501 kts 143°
2026-04-18 08:40 44.70710 21.17684 37089 ft 501 kts 143°
2026-04-18 08:41 44.64965 21.23246 37086 ft 501 kts 143°
2026-04-18 08:41 44.59275 21.28744 37086 ft 499 kts 143°
2026-04-18 08:42 44.53561 21.34248 37082 ft 498 kts 143°
2026-04-18 08:42 44.47834 21.39752 37081 ft 499 kts 144°
2026-04-18 08:43 44.42097 21.45251 37082 ft 500 kts 143°
2026-04-18 08:43 44.36341 21.50756 37075 ft 501 kts 144°
2026-04-18 08:44 44.30587 21.56246 37064 ft 501 kts 144°
2026-04-18 08:44 44.24860 21.61696 37065 ft 502 kts 144°
2026-04-18 08:45 44.19101 21.67163 37059 ft 503 kts 144°
2026-04-18 08:45 44.13283 21.72675 37049 ft 503 kts 144°
2026-04-18 08:46 44.07493 21.78145 37052 ft 503 kts 144°
2026-04-18 08:46 44.01687 21.83619 37038 ft 503 kts 145°
2026-04-18 08:47 43.95881 21.89079 37042 ft 504 kts 145°
2026-04-18 08:47 43.90080 21.94523 37036 ft 503 kts 145°
2026-04-18 08:48 43.84319 21.99912 37033 ft 502 kts 145°
2026-04-18 08:48 43.78524 22.05326 37019 ft 502 kts 145°
2026-04-18 08:49 43.72724 22.10726 37028 ft 503 kts 146°
2026-04-18 08:49 43.66901 22.16135 37029 ft 503 kts 145°
2026-04-18 08:50 43.61095 22.21519 37029 ft 503 kts 145°
2026-04-18 08:50 43.55303 22.26872 37013 ft 503 kts 146°
2026-04-18 08:51 43.49483 22.32238 37031 ft 503 kts 146°
2026-04-18 08:51 43.43668 22.37593 37022 ft 502 kts 146°
2026-04-18 08:52 43.37855 22.42935 37027 ft 502 kts 146°
2026-04-18 08:52 43.32041 22.48261 37023 ft 502 kts 146°
2026-04-18 08:53 43.26224 22.53578 37022 ft 501 kts 146°
2026-04-18 08:53 43.20420 22.58869 37025 ft 500 kts 146°
2026-04-18 08:54 43.14629 22.64138 37020 ft 500 kts 146°
2026-04-18 08:54 43.08836 22.69398 37021 ft 500 kts 146°
2026-04-18 08:55 43.03037 22.74648 37021 ft 499 kts 147°
2026-04-18 08:55 42.97286 22.79842 37022 ft 499 kts 147°
2026-04-18 08:56 42.91507 22.85098 37017 ft 499 kts 146°
2026-04-18 08:56 42.85744 22.90372 37021 ft 499 kts 146°
2026-04-18 08:57 42.77101 22.98251 37028 ft 498 kts 147°
2026-04-18 08:57 42.71337 23.03487 37040 ft 498 kts 147°
2026-04-18 08:58 42.66544 23.07829 37044 ft 497 kts 147°
2026-04-18 08:58 42.60805 23.13015 37056 ft 498 kts 147°
2026-04-18 08:59 42.55037 23.18217 37051 ft 496 kts 147°
2026-04-18 08:59 42.49278 23.23396 37047 ft 496 kts 147°
2026-04-18 09:00 42.43518 23.28568 37043 ft 496 kts 147°
2026-04-18 09:00 42.37796 23.33696 37033 ft 496 kts 147°
2026-04-18 09:01 42.32040 23.38840 37027 ft 496 kts 147°
2026-04-18 09:01 42.26299 23.44037 37025 ft 496 kts 146°
2026-04-18 09:02 42.20680 23.49475 37019 ft 497 kts 145°
2026-04-18 09:02 42.15072 23.54947 37018 ft 497 kts 145°
2026-04-18 09:03 42.09441 23.60379 37012 ft 497 kts 145°
2026-04-18 09:03 42.03802 23.65775 37013 ft 496 kts 145°
2026-04-18 09:04 41.98195 23.71121 37009 ft 497 kts 145°
2026-04-18 09:04 41.92550 23.76491 36995 ft 496 kts 146°
2026-04-18 09:05 41.86925 23.81832 36985 ft 495 kts 146°
2026-04-18 09:05 41.81303 23.87160 36988 ft 494 kts 146°
2026-04-18 09:06 41.75676 23.92479 36987 ft 494 kts 146°
2026-04-18 09:06 41.70082 23.97753 36978 ft 494 kts 146°
2026-04-18 09:07 41.64448 24.03057 36976 ft 494 kts 146°
2026-04-18 09:07 41.58819 24.08344 36971 ft 494 kts 146°
2026-04-18 09:08 41.53052 24.13278 36969 ft 491 kts 153°
2026-04-18 09:08 41.47027 24.17592 36969 ft 490 kts 154°
2026-04-18 09:09 41.41009 24.21788 36967 ft 490 kts 154°
2026-04-18 09:09 41.34961 24.26001 36970 ft 491 kts 154°
2026-04-18 09:10 41.28912 24.30223 36975 ft 491 kts 154°
2026-04-18 09:10 41.22864 24.34445 36969 ft 491 kts 154°
2026-04-18 09:11 41.16812 24.38663 36970 ft 491 kts 154°
2026-04-18 09:11 41.13827 24.40740 37092 ft 489 kts 155°
2026-04-18 09:11 41.10776 24.42860 37288 ft 488 kts 155°
2026-04-18 09:12 41.07807 24.44921 37429 ft 489 kts 154°
2026-04-18 09:12 41.04793 24.47010 37566 ft 489 kts 154°
2026-04-18 09:12 41.01776 24.49099 37714 ft 489 kts 154°
2026-04-18 09:12 40.98764 24.51183 37860 ft 489 kts 154°
2026-04-18 09:13 40.95740 24.53273 37983 ft 490 kts 154°
2026-04-18 09:13 40.92723 24.55356 38104 ft 490 kts 154°
2026-04-18 09:13 40.89705 24.57437 38273 ft 489 kts 154°
2026-04-18 09:13 40.86683 24.59519 38483 ft 489 kts 154°
2026-04-18 09:14 40.83667 24.61596 38635 ft 489 kts 154°
2026-04-18 09:14 40.80647 24.63672 38742 ft 488 kts 154°
2026-04-18 09:14 40.77631 24.65744 38857 ft 488 kts 154°
2026-04-18 09:14 40.74653 24.67787 38944 ft 489 kts 154°
2026-04-18 09:15 40.68610 24.71927 38965 ft 488 kts 154°
2026-04-18 09:15 40.62591 24.76043 38972 ft 486 kts 155°
2026-04-18 09:16 40.56593 24.80136 38971 ft 485 kts 155°
2026-04-18 09:16 40.50594 24.84220 38972 ft 485 kts 155°
2026-04-18 09:17 40.44638 24.88267 38963 ft 485 kts 155°
2026-04-18 09:17 40.38625 24.92344 38967 ft 485 kts 155°
2026-04-18 09:18 40.32621 24.96408 38968 ft 485 kts 155°
2026-04-18 09:18 40.26608 25.00470 38969 ft 485 kts 155°
2026-04-18 09:19 40.20610 25.04513 38953 ft 485 kts 155°
2026-04-18 09:19 40.14616 25.08546 38963 ft 484 kts 155°
2026-04-18 09:20 40.08614 25.12576 38963 ft 484 kts 155°
2026-04-18 09:20 40.02626 25.16588 38943 ft 484 kts 155°
2026-04-18 09:21 39.96663 25.20576 38940 ft 484 kts 155°
2026-04-18 09:21 39.90884 25.25082 38941 ft 487 kts 143°
2026-04-18 09:22 39.85649 25.30698 38943 ft 488 kts 141°
2026-04-18 09:22 39.80511 25.36490 38954 ft 488 kts 141°
2026-04-18 09:23 39.75381 25.42283 38948 ft 487 kts 141°
2026-04-18 09:23 39.70252 25.48029 38943 ft 487 kts 141°
2026-04-18 09:24 39.65114 25.53755 38936 ft 487 kts 141°
2026-04-18 09:24 39.59966 25.59475 38933 ft 487 kts 141°
2026-04-18 09:25 39.54815 25.65190 38924 ft 487 kts 142°
2026-04-18 09:25 39.49659 25.70899 38926 ft 488 kts 142°
2026-04-18 09:26 39.44512 25.76587 38914 ft 490 kts 142°
2026-04-18 09:26 39.39304 25.82330 38915 ft 492 kts 142°
2026-04-18 09:27 39.34089 25.88067 38911 ft 492 kts 142°
2026-04-18 09:27 39.28886 25.93782 38901 ft 490 kts 142°
2026-04-18 09:28 39.23681 25.99488 38894 ft 490 kts 142°
2026-04-18 09:28 39.18484 26.05174 38888 ft 490 kts 142°
2026-04-18 09:29 39.13290 26.10846 38878 ft 489 kts 141°
2026-04-18 09:29 39.08098 26.16505 38872 ft 488 kts 142°
2026-04-18 09:30 39.02940 26.22114 38874 ft 489 kts 142°
2026-04-18 09:30 38.97733 26.27765 38874 ft 489 kts 142°
2026-04-18 09:31 38.92525 26.33405 38869 ft 489 kts 142°
2026-04-18 09:31 38.87354 26.38994 38862 ft 488 kts 142°
2026-04-18 09:32 38.81976 26.44270 38867 ft 485 kts 150°
2026-04-18 09:32 38.76210 26.48769 38860 ft 485 kts 152°
2026-04-18 09:33 38.70385 26.53129 38843 ft 485 kts 152°
2026-04-18 09:33 38.64550 26.57477 38841 ft 485 kts 152°
2026-04-18 09:34 38.58735 26.61824 38837 ft 484 kts 152°
2026-04-18 09:34 38.52912 26.66179 38830 ft 485 kts 152°
2026-04-18 09:35 38.47082 26.70534 38823 ft 485 kts 152°
2026-04-18 09:35 38.41286 26.74853 38811 ft 485 kts 152°
2026-04-18 09:36 38.35464 26.79185 38794 ft 485 kts 153°
2026-04-18 09:36 38.29617 26.83525 38800 ft 485 kts 152°
2026-04-18 09:37 38.23788 26.87848 38795 ft 484 kts 152°
2026-04-18 09:37 38.17965 26.92159 38795 ft 484 kts 152°
2026-04-18 09:38 38.12149 26.96449 38793 ft 483 kts 152°
2026-04-18 09:38 38.06333 27.00731 38784 ft 484 kts 152°
2026-04-18 09:39 38.00503 27.05018 38780 ft 484 kts 152°
2026-04-18 09:39 37.94716 27.09267 38772 ft 484 kts 152°
2026-04-18 09:40 37.88887 27.13540 38763 ft 484 kts 152°
2026-04-18 09:40 37.83059 27.17802 38760 ft 484 kts 152°
2026-04-18 09:41 37.77230 27.22057 38754 ft 484 kts 153°
2026-04-18 09:41 37.71388 27.26314 38749 ft 484 kts 153°
2026-04-18 09:42 37.65554 27.30559 38743 ft 484 kts 153°
2026-04-18 09:42 37.59718 27.34796 38743 ft 484 kts 153°
2026-04-18 09:43 37.53919 27.38999 38732 ft 484 kts 153°
2026-04-18 09:43 37.48069 27.43231 38725 ft 485 kts 153°
2026-04-18 09:44 37.42213 27.47460 38728 ft 485 kts 153°
2026-04-18 09:44 37.36357 27.51680 38714 ft 485 kts 153°
2026-04-18 09:45 37.30502 27.55893 38712 ft 485 kts 153°
2026-04-18 09:45 37.24452 27.59541 38724 ft 482 kts 159°
2026-04-18 09:46 37.19349 27.62339 38724 ft 482 kts 160°
2026-04-18 09:46 37.13187 27.65656 38721 ft 482 kts 160°
2026-04-18 09:47 37.07026 27.68969 38702 ft 482 kts 160°
2026-04-18 09:47 37.00861 27.72290 38715 ft 481 kts 160°
2026-04-18 09:48 36.94713 27.75601 38718 ft 481 kts 160°
2026-04-18 09:48 36.88564 27.78907 38718 ft 481 kts 160°
2026-04-18 09:49 36.82413 27.82209 38706 ft 481 kts 160°
2026-04-18 09:49 36.76262 27.85505 38707 ft 481 kts 160°
2026-04-18 09:50 36.70111 27.88795 38715 ft 481 kts 160°
2026-04-18 09:50 36.63948 27.92030 38721 ft 480 kts 161°
2026-04-18 09:51 36.57821 27.95203 38718 ft 480 kts 161°
2026-04-18 09:51 36.51678 27.98502 38717 ft 484 kts 156°
2026-04-18 09:52 36.46179 28.03424 38720 ft 491 kts 141°
2026-04-18 09:52 36.41168 28.09242 38722 ft 494 kts 140°
2026-04-18 09:53 36.36221 28.15198 38719 ft 496 kts 140°
2026-04-18 09:53 36.31237 28.21164 38714 ft 497 kts 140°
2026-04-18 09:54 36.26273 28.27048 38709 ft 497 kts 140°
2026-04-18 09:54 36.21242 28.32982 38717 ft 500 kts 140°
2026-04-18 09:55 36.16190 28.38927 38717 ft 500 kts 140°
2026-04-18 09:55 36.11132 28.44870 38717 ft 501 kts 140°
2026-04-18 09:56 36.06069 28.50811 38715 ft 501 kts 140°
2026-04-18 09:56 36.01035 28.56706 38716 ft 501 kts 140°
2026-04-18 09:57 35.95965 28.62631 38704 ft 501 kts 140°
2026-04-18 09:57 35.90885 28.68559 38718 ft 502 kts 141°
2026-04-18 09:58 35.85796 28.74485 38721 ft 503 kts 141°
2026-04-18 09:58 35.80705 28.80403 38718 ft 503 kts 141°
2026-04-18 09:59 35.75612 28.86313 38718 ft 503 kts 141°
2026-04-18 10:00 35.67966 28.95163 38722 ft 503 kts 141°
2026-04-18 10:00 35.62896 29.01023 38723 ft 503 kts 142°
2026-04-18 10:01 35.57787 29.06912 38727 ft 502 kts 142°
2026-04-18 10:01 35.52679 29.12787 38725 ft 502 kts 142°
2026-04-18 10:02 35.47575 29.18648 38728 ft 502 kts 142°
2026-04-18 10:02 35.42502 29.24464 38731 ft 502 kts 142°
2026-04-18 10:03 35.37387 29.30317 38723 ft 504 kts 142°
2026-04-18 10:03 35.32241 29.36193 38714 ft 506 kts 142°
2026-04-18 10:04 35.27076 29.42081 38726 ft 508 kts 142°
2026-04-18 10:04 35.21897 29.47977 38727 ft 508 kts 142°
2026-04-18 10:05 35.16720 29.53860 38725 ft 508 kts 142°
2026-04-18 10:05 35.11529 29.59746 38719 ft 510 kts 142°
2026-04-18 10:06 35.06358 29.65598 38719 ft 510 kts 142°
2026-04-18 10:06 35.01144 29.71491 38698 ft 510 kts 143°
2026-04-18 10:07 34.95927 29.77376 38716 ft 509 kts 143°
2026-04-18 10:07 34.90726 29.83231 38705 ft 509 kts 143°
2026-04-18 10:08 34.85517 29.89083 38714 ft 510 kts 143°
2026-04-18 10:08 34.80286 29.94951 38711 ft 511 kts 143°
2026-04-18 10:09 34.75058 30.00804 38708 ft 510 kts 143°
2026-04-18 10:09 34.69715 30.06362 38708 ft 508 kts 147°
2026-04-18 10:10 34.64231 30.11779 38693 ft 508 kts 147°
2026-04-18 10:10 34.58755 30.17222 38705 ft 508 kts 147°
2026-04-18 10:11 34.53301 30.22696 38705 ft 509 kts 147°
2026-04-18 10:11 34.47856 30.28175 38703 ft 509 kts 147°
2026-04-18 10:12 34.42407 30.33649 38705 ft 509 kts 147°
2026-04-18 10:12 34.36950 30.39119 38705 ft 509 kts 147°
2026-04-18 10:13 34.31532 30.44539 38707 ft 509 kts 147°
2026-04-18 10:13 34.26070 30.49994 38709 ft 509 kts 147°
2026-04-18 10:14 34.20610 30.55437 38698 ft 509 kts 147°
2026-04-18 10:14 34.15142 30.60879 38704 ft 509 kts 147°
2026-04-18 10:15 34.09710 30.66276 38700 ft 508 kts 147°
2026-04-18 10:15 34.04242 30.71695 38706 ft 508 kts 147°
2026-04-18 10:16 33.98777 30.77107 38703 ft 508 kts 147°
2026-04-18 10:16 33.93320 30.82502 38706 ft 507 kts 147°
2026-04-18 10:17 33.87855 30.87894 38704 ft 507 kts 147°
2026-04-18 10:17 33.82393 30.93273 38711 ft 507 kts 148°
2026-04-18 10:18 33.76924 30.98651 38683 ft 508 kts 148°
2026-04-18 10:18 33.71454 31.04021 38708 ft 508 kts 148°
2026-04-18 10:19 33.66010 31.09355 38711 ft 508 kts 148°
2026-04-18 10:19 33.60533 31.14714 38711 ft 508 kts 148°
2026-04-18 10:20 33.55049 31.20069 38716 ft 508 kts 148°
2026-04-18 10:20 33.49560 31.25420 38704 ft 508 kts 148°
2026-04-18 10:21 33.44071 31.30765 38716 ft 508 kts 149°
2026-04-18 10:21 33.38586 31.36095 38724 ft 507 kts 149°
2026-04-18 10:22 33.33097 31.41419 38730 ft 507 kts 149°
2026-04-18 10:22 33.27620 31.46722 38730 ft 507 kts 149°
2026-04-18 10:23 33.22163 31.51999 38733 ft 507 kts 149°
2026-04-18 10:23 33.16673 31.57298 38751 ft 507 kts 149°
2026-04-18 10:24 33.11182 31.62590 38741 ft 507 kts 149°
2026-04-18 10:24 33.05686 31.67877 38746 ft 507 kts 149°
2026-04-18 10:25 33.00185 31.73160 38751 ft 507 kts 149°
2026-04-18 10:25 32.94686 31.78434 38759 ft 507 kts 149°
2026-04-18 10:26 32.89224 31.83663 38756 ft 507 kts 149°
2026-04-18 10:26 32.83719 31.88924 38762 ft 507 kts 149°
2026-04-18 10:27 32.78213 31.94179 38765 ft 506 kts 149°
2026-04-18 10:27 32.72718 31.99413 38769 ft 506 kts 150°
2026-04-18 10:28 32.67224 32.04638 38774 ft 506 kts 150°
2026-04-18 10:28 32.61719 32.09848 38775 ft 504 kts 151°
2026-04-18 10:29 32.56096 32.14696 38785 ft 501 kts 154°
2026-04-18 10:29 32.50384 32.19417 38776 ft 500 kts 154°
2026-04-18 10:30 32.44682 32.24177 38788 ft 501 kts 153°
2026-04-18 10:30 32.39011 32.28963 38790 ft 501 kts 153°
2026-04-18 10:31 32.33333 32.33766 38800 ft 501 kts 153°
2026-04-18 10:31 32.27699 32.38525 38797 ft 501 kts 153°
2026-04-18 10:32 32.22028 32.43305 38800 ft 501 kts 153°
2026-04-18 10:32 32.17304 32.47278 38800 ft 500 kts 154°
2026-04-18 10:33 32.11640 32.52035 38808 ft 499 kts 154°
2026-04-18 10:33 32.05978 32.56779 38808 ft 499 kts 154°
2026-04-18 10:34 32.00313 32.61517 38810 ft 499 kts 154°
2026-04-18 10:34 31.94645 32.66252 38811 ft 499 kts 154°
2026-04-18 10:35 31.88981 32.70979 38799 ft 499 kts 154°
2026-04-18 10:35 31.83294 32.75713 38817 ft 500 kts 154°
2026-04-18 10:36 31.77645 32.80411 38816 ft 500 kts 154°
2026-04-18 10:36 31.71950 32.85140 38823 ft 500 kts 154°
2026-04-18 10:37 31.66262 32.89857 38807 ft 500 kts 155°
2026-04-18 10:37 31.60567 32.94571 38826 ft 501 kts 154°
2026-04-18 10:38 31.54859 32.99289 38819 ft 501 kts 155°
2026-04-18 10:38 31.49159 33.03993 38821 ft 501 kts 155°
2026-04-18 10:39 31.43500 33.08656 38820 ft 501 kts 155°
2026-04-18 10:39 31.37747 33.13225 38820 ft 492 kts 161°
2026-04-18 10:39 31.34696 33.14925 38823 ft 479 kts 170°
2026-04-18 10:40 31.31594 33.16290 38808 ft 476 kts 171°
2026-04-18 10:40 31.25343 33.18779 38820 ft 473 kts 173°
2026-04-18 10:41 31.19090 33.21167 38820 ft 471 kts 173°
2026-04-18 10:41 31.12929 33.23538 38822 ft 471 kts 173°
2026-04-18 10:42 31.06663 33.25951 38822 ft 477 kts 172°
2026-04-18 10:42 31.00379 33.28392 38817 ft 474 kts 173°
2026-04-18 10:43 30.94124 33.30822 38825 ft 473 kts 173°
2026-04-18 10:43 30.87876 33.33239 38827 ft 473 kts 173°
2026-04-18 10:44 30.81667 33.35636 38826 ft 472 kts 173°
2026-04-18 10:44 30.75429 33.38042 38820 ft 472 kts 173°
2026-04-18 10:45 30.69188 33.40445 38835 ft 472 kts 173°
2026-04-18 10:45 30.62942 33.42847 38834 ft 472 kts 173°
2026-04-18 10:46 30.56706 33.45242 38836 ft 472 kts 173°
2026-04-18 10:46 30.50458 33.47639 38822 ft 472 kts 174°
2026-04-18 10:47 30.44254 33.50015 38833 ft 472 kts 174°
2026-04-18 10:47 30.38013 33.52402 38840 ft 472 kts 174°
2026-04-18 10:48 30.31767 33.54788 38838 ft 472 kts 174°
2026-04-18 10:48 30.25520 33.57172 38839 ft 472 kts 174°
2026-04-18 10:49 30.19321 33.59533 38843 ft 472 kts 174°
2026-04-18 10:49 30.13038 33.61923 38842 ft 472 kts 174°
2026-04-18 10:50 30.06836 33.64280 38844 ft 472 kts 174°
2026-04-18 10:50 30.00589 33.66651 38843 ft 472 kts 174°
2026-04-18 10:51 29.94341 33.69019 38815 ft 472 kts 174°
2026-04-18 10:51 29.88084 33.71386 38838 ft 474 kts 175°
2026-04-18 10:52 29.81800 33.73760 38842 ft 475 kts 175°
2026-04-18 10:52 29.75558 33.76119 38843 ft 475 kts 175°
2026-04-18 10:53 29.69271 33.78490 38843 ft 475 kts 175°
2026-04-18 10:53 29.62991 33.80853 38851 ft 475 kts 175°
2026-04-18 10:54 29.56703 33.83219 38848 ft 475 kts 175°
2026-04-18 10:54 29.50421 33.85583 38854 ft 475 kts 175°
2026-04-18 10:55 29.44135 33.87945 38822 ft 475 kts 175°
2026-04-18 10:55 29.37853 33.90302 38859 ft 475 kts 175°
2026-04-18 10:56 29.31609 33.92641 38865 ft 475 kts 175°
2026-04-18 10:56 29.25320 33.94994 38864 ft 475 kts 175°
2026-04-18 10:57 29.19032 33.97351 38868 ft 475 kts 176°
2026-04-18 10:57 29.12733 33.99699 38866 ft 476 kts 176°
2026-04-18 10:58 29.06425 34.02046 38864 ft 476 kts 176°
2026-04-18 10:58 29.00121 34.04391 38861 ft 476 kts 176°
2026-04-18 10:59 28.93856 34.06721 38862 ft 476 kts 176°
2026-04-18 10:59 28.87551 34.09063 38850 ft 476 kts 176°
2026-04-18 11:00 28.81242 34.11401 38854 ft 476 kts 176°
2026-04-18 11:00 28.74948 34.13733 38860 ft 476 kts 176°
2026-04-18 11:01 28.68647 34.16062 38845 ft 476 kts 176°
2026-04-18 11:01 28.62339 34.18392 38847 ft 476 kts 176°
2026-04-18 11:02 28.52873 34.21883 38822 ft 477 kts 176°
2026-04-18 11:02 28.46603 34.24194 38818 ft 476 kts 176°
2026-04-18 11:03 28.41238 34.26168 38821 ft 475 kts 176°
2026-04-18 11:03 28.34945 34.28482 38799 ft 475 kts 177°
2026-04-18 11:04 28.28661 34.30788 38816 ft 474 kts 177°
2026-04-18 11:04 28.22383 34.33089 38802 ft 474 kts 177°
2026-04-18 11:05 28.16109 34.35384 38801 ft 474 kts 177°
2026-04-18 11:05 28.09834 34.37678 38801 ft 474 kts 177°
2026-04-18 11:06 28.03567 34.39968 38805 ft 473 kts 177°
2026-04-18 11:06 28.00488 34.41288 38804 ft 487 kts 169°
2026-04-18 11:06 27.97453 34.43150 38803 ft 501 kts 162°
2026-04-18 11:07 27.91547 34.47461 38802 ft 508 kts 160°
2026-04-18 11:07 27.85690 34.51961 38804 ft 510 kts 159°
2026-04-18 11:08 27.79812 34.56467 38820 ft 510 kts 160°
2026-04-18 11:08 27.73921 34.60938 38820 ft 510 kts 160°
2026-04-18 11:09 27.68062 34.65359 38826 ft 510 kts 160°
2026-04-18 11:09 27.62161 34.69803 38832 ft 509 kts 160°
2026-04-18 11:10 27.56262 34.74241 38833 ft 509 kts 160°
2026-04-18 11:10 27.50353 34.78679 38840 ft 511 kts 160°
2026-04-18 11:11 27.44428 34.83127 38830 ft 512 kts 160°
2026-04-18 11:11 27.38498 34.87572 38843 ft 512 kts 160°
2026-04-18 11:12 27.32605 34.91986 38843 ft 512 kts 160°
2026-04-18 11:12 27.26668 34.96425 38848 ft 512 kts 160°
2026-04-18 11:13 27.20727 35.00861 38838 ft 512 kts 160°
2026-04-18 11:13 27.14779 35.05295 38830 ft 513 kts 160°
2026-04-18 11:14 27.08829 35.09725 38853 ft 513 kts 160°
2026-04-18 11:14 27.02898 35.14138 38847 ft 513 kts 160°
2026-04-18 11:15 26.96962 35.18549 38853 ft 513 kts 160°
2026-04-18 11:15 26.91008 35.22966 38849 ft 513 kts 160°
2026-04-18 11:16 26.85057 35.27374 38852 ft 514 kts 160°
2026-04-18 11:16 26.79078 35.31796 38851 ft 515 kts 159°
2026-04-18 11:17 26.73099 35.36214 38851 ft 515 kts 159°
2026-04-18 11:17 26.67123 35.40627 38851 ft 515 kts 159°
2026-04-18 11:18 26.61154 35.45082 38844 ft 521 kts 155°
2026-04-18 11:18 26.58368 35.47770 38852 ft 538 kts 144°
2026-04-18 11:18 26.55968 35.51070 38846 ft 556 kts 131°
2026-04-18 11:19 26.52462 35.58856 38853 ft 570 kts 120°
2026-04-18 11:19 26.49381 35.67057 38853 ft 573 kts 119°
2026-04-18 11:20 26.46858 35.73893 38855 ft 573 kts 119°
2026-04-18 11:20 26.43768 35.82088 38848 ft 572 kts 119°
2026-04-18 11:21 26.40634 35.90260 38854 ft 572 kts 120°
2026-04-18 11:21 26.37486 35.98416 38854 ft 572 kts 120°
2026-04-18 11:22 26.34338 36.06566 38854 ft 572 kts 120°
2026-04-18 11:22 26.31209 36.14655 38846 ft 572 kts 120°
2026-04-18 11:23 26.28052 36.22806 38830 ft 572 kts 120°
2026-04-18 11:23 26.24894 36.30943 38816 ft 571 kts 120°
2026-04-18 11:24 26.21739 36.39056 38806 ft 570 kts 120°
2026-04-18 11:24 26.18590 36.47116 38789 ft 569 kts 121°
2026-04-18 11:25 26.14957 36.54881 38803 ft 565 kts 126°
2026-04-18 11:25 26.11192 36.62563 38852 ft 565 kts 126°
2026-04-18 11:26 26.07397 36.70229 38850 ft 566 kts 126°
2026-04-18 11:26 26.03600 36.77893 38833 ft 566 kts 126°
2026-04-18 11:27 25.99803 36.85560 38836 ft 566 kts 126°
2026-04-18 11:27 25.96007 36.93218 38831 ft 565 kts 126°
2026-04-18 11:28 25.92232 37.00820 38817 ft 565 kts 126°
2026-04-18 11:28 25.88428 37.08468 38816 ft 565 kts 126°
2026-04-18 11:29 25.84621 37.16109 38815 ft 565 kts 126°
2026-04-18 11:29 25.80810 37.23745 38799 ft 565 kts 126°
2026-04-18 11:30 25.77035 37.31323 38818 ft 565 kts 126°
2026-04-18 11:30 25.73237 37.38957 38802 ft 565 kts 125°
2026-04-18 11:31 25.69432 37.46592 38826 ft 564 kts 125°
2026-04-18 11:31 25.65627 37.54204 38832 ft 564 kts 125°
2026-04-18 11:32 25.61821 37.61810 38832 ft 563 kts 125°
2026-04-18 11:32 25.58017 37.69397 38820 ft 563 kts 125°
2026-04-18 11:33 25.54213 37.76973 38813 ft 562 kts 125°
2026-04-18 11:33 25.50439 37.84478 38800 ft 561 kts 125°
2026-04-18 11:34 25.46640 37.92018 38791 ft 561 kts 125°
2026-04-18 11:34 25.42831 37.99565 38790 ft 561 kts 125°
2026-04-18 11:35 25.39012 38.07118 38778 ft 562 kts 125°
2026-04-18 11:35 25.35186 38.14675 38785 ft 562 kts 125°
2026-04-18 11:36 25.31384 38.22173 38782 ft 562 kts 125°
2026-04-18 11:36 25.27560 38.29704 38797 ft 561 kts 125°
2026-04-18 11:37 25.23735 38.37223 38797 ft 561 kts 125°
2026-04-18 11:37 25.19906 38.44735 38808 ft 561 kts 125°
2026-04-18 11:38 25.16069 38.52252 38818 ft 561 kts 125°
2026-04-18 11:38 25.12227 38.59751 38820 ft 561 kts 125°
2026-04-18 11:39 25.08385 38.67245 38833 ft 560 kts 125°
2026-04-18 11:39 25.04552 38.74710 38840 ft 558 kts 125°
2026-04-18 11:40 25.00750 38.82099 38848 ft 557 kts 125°
2026-04-18 11:40 24.96908 38.89553 38855 ft 558 kts 125°
2026-04-18 11:41 24.93068 38.96990 38868 ft 557 kts 125°
2026-04-18 11:41 24.89225 39.04413 38872 ft 557 kts 125°
2026-04-18 11:42 24.85382 39.11824 38871 ft 557 kts 125°
2026-04-18 11:42 24.81534 39.19234 38875 ft 558 kts 125°
2026-04-18 11:43 24.77695 39.26619 38877 ft 558 kts 125°
2026-04-18 11:43 24.73832 39.34041 38886 ft 559 kts 125°
2026-04-18 11:44 24.69967 39.41455 38892 ft 559 kts 125°
2026-04-18 11:44 24.66095 39.48867 38900 ft 559 kts 125°
2026-04-18 11:45 24.62214 39.56281 38895 ft 559 kts 125°
2026-04-18 11:45 24.58323 39.63708 38884 ft 559 kts 125°
2026-04-18 11:46 24.55052 39.71417 38884 ft 567 kts 107°
2026-04-18 11:46 24.53749 39.79964 38885 ft 568 kts 97°
2026-04-18 11:47 24.52926 39.88630 38890 ft 569 kts 95°
2026-04-18 11:47 24.52158 39.97295 38897 ft 569 kts 96°
2026-04-18 11:48 24.51349 40.05935 38896 ft 569 kts 96°
2026-04-18 11:48 24.50507 40.14577 38901 ft 568 kts 96°
2026-04-18 11:49 24.49663 40.23124 38903 ft 567 kts 96°
2026-04-18 11:49 24.48807 40.31760 38903 ft 568 kts 96°
2026-04-18 11:50 24.47949 40.40387 38906 ft 569 kts 96°
2026-04-18 11:50 24.47085 40.49020 38906 ft 569 kts 96°
2026-04-18 11:51 24.46216 40.57663 38915 ft 569 kts 96°
2026-04-18 11:51 24.45352 40.66247 38913 ft 569 kts 96°
2026-04-18 11:52 24.44471 40.74886 38923 ft 569 kts 96°
2026-04-18 11:52 24.43580 40.83528 38917 ft 570 kts 96°
2026-04-18 11:53 24.42686 40.92179 38914 ft 570 kts 96°
2026-04-18 11:53 24.41790 41.00815 38924 ft 569 kts 96°
2026-04-18 11:54 24.40891 41.09446 38927 ft 569 kts 96°
2026-04-18 11:54 24.39994 41.18024 38930 ft 569 kts 96°
2026-04-18 11:55 24.39086 41.26645 38936 ft 569 kts 96°
2026-04-18 11:55 24.38172 41.35269 38945 ft 569 kts 96°
2026-04-18 11:56 24.37254 41.43889 38941 ft 569 kts 96°
2026-04-18 11:56 24.36329 41.52529 38947 ft 569 kts 96°
2026-04-18 11:57 24.35401 41.61153 38949 ft 569 kts 96°
2026-04-18 11:57 24.34474 41.69722 38952 ft 569 kts 96°
2026-04-18 11:58 24.33536 41.78340 38943 ft 569 kts 96°
2026-04-18 11:58 24.31938 41.86821 38954 ft 568 kts 106°
2026-04-18 11:59 24.29805 41.95171 38957 ft 569 kts 107°
2026-04-18 11:59 24.27580 42.03506 38957 ft 569 kts 107°
2026-04-18 12:00 24.25371 42.11790 38965 ft 569 kts 107°
2026-04-18 12:00 24.23164 42.20112 38961 ft 569 kts 107°
2026-04-18 12:01 24.19857 42.32585 38966 ft 568 kts 107°
2026-04-18 12:02 24.17647 42.40897 38959 ft 568 kts 107°
2026-04-18 12:02 24.15449 42.49140 38966 ft 567 kts 107°
2026-04-18 12:03 24.13234 42.57425 38968 ft 567 kts 107°
2026-04-18 12:03 24.11014 42.65708 38971 ft 566 kts 107°
2026-04-18 12:04 24.08795 42.73975 38978 ft 565 kts 107°
2026-04-18 12:04 24.06570 42.82239 38973 ft 565 kts 107°
2026-04-18 12:05 24.04343 42.90500 38971 ft 565 kts 107°
2026-04-18 12:05 24.02129 42.98696 38977 ft 565 kts 107°
2026-04-18 12:06 23.99876 43.06991 38974 ft 565 kts 107°
2026-04-18 12:06 23.97647 43.15184 38976 ft 565 kts 107°
2026-04-18 12:07 23.95401 43.23425 38969 ft 565 kts 107°
2026-04-18 12:07 23.93154 43.31656 38984 ft 564 kts 107°
2026-04-18 12:08 23.91284 43.38487 38981 ft 564 kts 107°
2026-04-18 12:08 23.89032 43.46702 38978 ft 564 kts 107°
2026-04-18 12:09 23.86774 43.54920 38968 ft 564 kts 107°
2026-04-18 12:09 23.84512 43.63131 38967 ft 564 kts 107°
2026-04-18 12:10 23.82263 43.71280 38969 ft 563 kts 107°
2026-04-18 12:10 23.79994 43.79479 38949 ft 563 kts 107°
2026-04-18 12:11 23.77803 43.87690 38952 ft 563 kts 101°
2026-04-18 12:11 23.76818 43.96131 38952 ft 560 kts 93°
2026-04-18 12:12 23.76173 44.04619 38946 ft 561 kts 92°
2026-04-18 12:12 23.75575 44.13120 38940 ft 560 kts 92°
2026-04-18 12:13 23.74959 44.21567 38948 ft 561 kts 92°
2026-04-18 12:13 23.74318 44.30064 38955 ft 561 kts 92°
2026-04-18 12:14 23.73669 44.38550 38960 ft 562 kts 92°
2026-04-18 12:14 23.73012 44.47100 38954 ft 566 kts 92°
2026-04-18 12:15 23.72347 44.55674 38958 ft 566 kts 92°
2026-04-18 12:15 23.71678 44.64242 38957 ft 566 kts 92°
2026-04-18 12:16 23.71009 44.72756 38963 ft 566 kts 92°
2026-04-18 12:16 23.70333 44.81308 38955 ft 566 kts 92°
2026-04-18 12:17 23.69652 44.89867 38955 ft 566 kts 92°
2026-04-18 12:17 23.68967 44.98443 38963 ft 566 kts 92°
2026-04-18 12:18 23.68275 45.06963 38959 ft 566 kts 92°
2026-04-18 12:18 23.67577 45.15512 38956 ft 566 kts 92°
2026-04-18 12:19 23.66879 45.24060 38953 ft 566 kts 92°
2026-04-18 12:19 23.66174 45.32623 38947 ft 566 kts 92°
2026-04-18 12:20 23.65458 45.41186 38954 ft 567 kts 92°
2026-04-18 12:20 23.64743 45.49707 38947 ft 567 kts 92°
2026-04-18 12:21 23.64021 45.58263 38942 ft 567 kts 92°
2026-04-18 12:21 23.63295 45.66824 38940 ft 567 kts 92°
2026-04-18 12:22 23.62570 45.75383 38947 ft 567 kts 92°
2026-04-18 12:22 23.61832 45.83947 38946 ft 566 kts 92°
2026-04-18 12:23 23.61090 45.92507 38935 ft 566 kts 92°
2026-04-18 12:23 23.60350 46.01008 38941 ft 566 kts 92°
2026-04-18 12:24 23.59602 46.09557 38952 ft 566 kts 92°
2026-04-18 12:24 23.58847 46.18117 38950 ft 566 kts 92°
2026-04-18 12:25 23.58089 46.26655 38954 ft 565 kts 92°
2026-04-18 12:25 23.57329 46.35189 38962 ft 567 kts 92°
2026-04-18 12:26 23.56560 46.43754 38960 ft 567 kts 92°
2026-04-18 12:26 23.55786 46.52304 38965 ft 567 kts 92°
2026-04-18 12:27 23.55018 46.60805 38949 ft 566 kts 92°
2026-04-18 12:27 23.54234 46.69348 38958 ft 565 kts 92°
2026-04-18 12:28 23.53447 46.77877 38953 ft 565 kts 92°
2026-04-18 12:28 23.52657 46.86403 38949 ft 565 kts 92°
2026-04-18 12:29 23.51863 46.94931 38940 ft 565 kts 92°
2026-04-18 12:29 23.51068 47.03411 38950 ft 566 kts 92°
2026-04-18 12:30 23.50265 47.11930 38942 ft 566 kts 92°
2026-04-18 12:30 23.49455 47.20461 38951 ft 566 kts 92°
2026-04-18 12:31 23.48641 47.28988 38932 ft 566 kts 92°
2026-04-18 12:31 23.47823 47.37525 38931 ft 566 kts 92°
2026-04-18 12:32 23.47000 47.46043 38931 ft 565 kts 92°
2026-04-18 12:32 23.46175 47.54553 38924 ft 565 kts 92°
2026-04-18 12:33 23.45344 47.63080 38926 ft 565 kts 92°
2026-04-18 12:33 23.44506 47.71599 38909 ft 565 kts 92°
2026-04-18 12:34 23.43697 47.80054 38919 ft 564 kts 91°
2026-04-18 12:34 23.43434 47.88547 38867 ft 559 kts 82°
2026-04-18 12:34 23.43777 47.92773 38736 ft 556 kts 75°